Content
SEND FEEDBACK

Daily
Averages
Monthly
Summary
Mexico

COZUMEL, QUINTANA ROO


Home > North America > Mexico > Quintana Roo
Elevation: 15 feet     Latitude: 20 31N     Longitude: 086 56W

WEATHER
 
SELECT A DAY
Number of Records: 128,079;   Date Range: 1/1/95 - 11/26/14
 
SHARE

PRINT THIS DATA

[ ← Previous Day ]
WEATHER ALMANAC - NOVEMBER 1, 2013
[ Next Day → ]
[ °C ]   °F
Weather ElementAverageHighLow
Temperature75.6 °F84.2 °F (12:43 pm)69.8 °F (5:40 am)
Dewpoint72.3 °F75.2 °F (7:46 am)68 °F (5:40 am)
Humidity90.3 %100 % (1:40 am)70 % (12:43 pm)
Barometer29.91 in29.99 in (8:40 am)29.86 in (3:44 pm)
Wind Speed3.4 mph10.4 mph (1:41 pm)
Weather ElementAverage
Visibility8.3 mi
Wind DirectionENE (60 °)

Weather ElementTotal
Precipitation---
Cooling Degree Days12 (Base 65)
Growing Degree Days27 (Base 50)
Averaged from 23 records on November 1, 2013
WEATHER CONDITIONS BREAKOUT
WIND DIRECTION BREAKOUT
WEATHER BY HOUR - NOVEMBER 1, 2013
[ °C ]   °F
Local TimeTemperatureDewpointHumidityBarometerVisibilityWind DirectionWind SpeedGust SpeedPrecipitationEventsConditions
1:40 AM71.6 °F71.6 °F100 %29.90 in7.0 miCalmClear
2:40 AM71.6 °F71.6 °F100 %29.93 in7.0 miCalmClear
3:40 AM71.6 °F71.6 °F100 %29.90 in7.0 miCalmClear
4:40 AM71.6 °F69.8 °F94 %29.90 in7.0 miCalmClear
5:40 AM69.8 °F68.0 °F94 %29.89 in7.0 miCalmScattered Clouds
6:40 AM69.8 °F68.0 °F94 %29.93 in7.0 miESE (110°)3.5 mphPartly Cloudy
7:46 AM77.0 °F75.2 °F94 %29.94 in8.0 miESE (120°)5.8 mphClear
8:40 AM80.6 °F75.2 °F84 %29.99 in8.0 miESE (120°)9.2 mphScattered Clouds
9:41 AM82.4 °F73.4 °F74 %29.96 in10.0 miSE (140°)8.1 mphScattered Clouds
10:41 AM82.4 °F75.2 °F79 %29.94 in10.0 miSE (140°)8.1 mphScattered Clouds
11:45 AM82.4 °F73.4 °F74 %29.91 in10.0 miESE (120°)9.2 mphMostly Cloudy
12:43 PM84.2 °F73.4 °F70 %29.89 in10.0 miSE (140°)6.9 mphMostly Cloudy
1:41 PM84.2 °F73.4 °F70 %29.87 in10.0 miESE (120°)10.4 mphMostly Cloudy
2:40 PM82.4 °F73.4 °F74 %29.88 in10.0 miSE (140°)5.8 mphScattered Clouds
3:44 PM78.8 °F75.2 °F89 %29.86 in10.0 miESE (120°)6.9 mphMostly Cloudy
4:46 PM77.0 °F75.2 °F94 %29.86 in10.0 miCalmMostly Cloudy
5:41 PM75.2 °F73.4 °F94 %29.86 in8.0 miCalmScattered Clouds
6:41 PM73.4 °F73.4 °F100 %29.90 in8.0 miCalmScattered Clouds
7:40 PM71.6 °F71.6 °F100 %29.92 in8.0 miCalmScattered Clouds
8:42 PM71.6 °F71.6 °F100 %29.96 in7.0 miESE (110°)3.5 mphPartly Cloudy
9:51 PM69.8 °F69.8 °F100 %29.94 in7.0 miCalmClear
10:40 PM69.8 °F69.8 °F100 %29.93 in7.0 miCalmClear
11:43 PM69.8 °F69.8 °F100 %29.90 in7.0 miCalmScattered Clouds
Hourly data recorded from MMCZ, located miles away from Cozumel, Quintana Roo







STORIES FROM OUR PARTNERS